MDT,Max TemperatureF,Mean TemperatureF,Min TemperatureF,Max Dew PointF,MeanDew PointF,Min DewpointF,Max Humidity, Mean Humidity, Min Humidity, Max Sea Level PressureIn, Mean Sea Level PressureIn, Min Sea Level PressureIn, Max VisibilityMiles, Mean VisibilityMiles, Min VisibilityMiles, Max Wind SpeedMPH, Mean Wind SpeedMPH, Max Gust SpeedMPH,PrecipitationIn, CloudCover, Events, WindDirDegrees
2011-10-1,90,67,44,39,35,31,70,41,12,30.04,29.98,29.94,10,10,10,14,4,17,0.00,0,,134
2011-10-2,96,71,46,44,39,33,66,39,11,29.99,29.90,29.80,10,10,10,20,6,25,0.00,0,,142
2011-10-3,87,70,52,45,40,37,59,38,17,30.05,29.95,29.89,10,10,10,15,8,15,0.00,0,,346
2011-10-4,90,72,53,46,41,34,62,39,16,29.93,29.78,29.67,10,10,10,20,7,24,T,0,,160
2011-10-5,80,69,57,46,40,33,48,37,26,29.67,29.60,29.51,10,10,10,30,17,39,0.00,1,,161
2011-10-6,71,60,48,57,52,45,93,73,53,29.57,29.46,29.38,10,9,2,28,11,32,1.01,5,Rain-Thunderstorm,139
2011-10-7,66,54,42,42,37,30,76,57,37,29.89,29.62,29.46,10,10,10,38,18,45,0.00,1,,223
2011-10-8,50,45,40,46,44,40,93,87,80,30.27,30.12,29.88,10,10,9,26,15,31,0.19,7,Rain,346
2011-10-9,50,47,44,45,43,42,100,90,80,30.26,30.14,29.96,10,10,4,13,7,16,0.03,8,Rain,17
2011-10-10,65,53,40,45,41,35,100,67,34,29.96,29.85,29.75,10,10,5,9,3,13,0.00,2,,139
2011-10-11,70,54,37,45,37,32,85,55,25,29.76,29.71,29.65,10,10,10,22,4,26,T,1,,28
2011-10-12,65,52,38,45,34,28,80,53,26,30.00,29.92,29.79,10,10,10,32,15,43,0.00,1,,318
2011-10-13,64,51,37,31,29,27,65,45,25,30.02,29.98,29.91,10,10,10,29,14,36,0.00,0,,324
2011-10-14,52,44,36,33,30,26,76,57,38,30.15,30.08,30.01,10,10,10,16,7,20,0.00,7,,342
2011-10-15,72,52,31,41,34,28,83,55,27,30.04,29.93,29.73,10,10,10,29,10,36,0.00,1,,53
2011-10-16,55,48,41,39,32,23,93,61,29,30.20,30.09,30.00,10,10,6,18,7,24,0.10,5,Rain,354
2011-10-17,55,47,38,39,33,27,92,65,38,30.25,30.14,29.98,10,10,7,24,14,32,0.02,4,Rain,334
2011-10-18,57,46,34,28,25,21,70,47,24,30.34,30.28,30.24,10,10,10,33,14,41,0.00,1,,325
2011-10-19,56,42,28,32,27,24,85,60,35,30.26,30.16,30.06,10,10,10,14,6,17,0.00,0,,140
2011-10-20,64,45,25,36,30,23,92,61,30,30.05,30.00,29.93,10,10,10,10,4,13,0.00,0,,140
2011-10-21,65,53,40,46,38,33,100,70,39,30.19,30.11,30.01,10,10,10,18,8,23,T,4,,323
2011-10-22,65,52,39,45,41,38,96,68,40,30.13,30.06,29.95,10,10,10,22,3,28,0.01,4,Rain,186
2011-10-23,65,53,40,39,36,31,82,56,30,30.07,30.01,29.94,10,10,10,40,10,46,T,3,Rain,311
2011-10-24,60,48,35,40,35,30,92,68,43,30.07,29.95,29.82,10,10,10,17,7,22,0.00,0,,46
2011-10-25,50,43,35,40,33,24,92,66,39,30.30,30.11,29.93,10,10,8,26,17,33,0.02,5,Rain,340
2011-10-26,47,33,19,31,25,19,100,67,34,30.33,30.26,30.17,10,10,10,20,8,23,T,1,,325
2011-10-27,54,35,16,26,19,14,92,59,26,30.19,30.13,30.07,10,10,10,24,7,30,0.00,3,,339
2011-10-28,53,39,25,25,21,20,75,52,28,30.29,30.19,29.97,10,10,10,10,5,14,0.00,1,,306
2011-10-29,65,45,25,34,24,17,75,46,17,30.06,29.92,29.81,10,10,4,44,12,52,0.00,2,,332
2011-10-30,57,41,24,27,21,18,81,52,22,30.16,30.10,30.01,10,10,10,26,8,32,0.00,0,,307
2011-10-31,71,50,29,39,26,20,75,46,17,30.00,29.88,29.76,10,10,10,33,8,41,0.00,0,,31